Wind_Speed
12 12 11 11 11 11 10 11 13 14 14 13 14 17 16 17 17 16 17 19 19 20 21 21 21 22 22 23 23 24 25 25 26 27 28 29 29 29 29 30 30 30 31 31
12 12 11 12 13 12 12 13 13 14 15 14 14 16 17 18 19 18 19 19 20 20 20 22 22 21 22 23 24 25 25 26 27 28 28 29 30 30 30 30 30 31 31 31
11 10 13 14 15 14 13 14 16 16 16 15 15 17 18 18 18 18 18 19 19 19 20 21 21 21 22 23 24 25 25 26 27 28 28 29 29 30 30 31 31 31 32 32
11 13 15 15 14 15 14 14 16 16 15 14 14 16 18 19 19 18 18 19 20 20 20 22 22 23 23 24 24 25 26 27 27 27 28 29 29 30 31 32 32 32 32 32
13 14 14 14 14 15 13 13 14 15 15 15 16 16 22 21 20 18 17 18 19 20 21 22 23 23 23 23 24 25 26 27 27 28 29 30 30 31 32 33 33 33 33 32
13 13 13 13 14 15 14 12 12 14 16 18 17 17 19 19 17 17 17 17 18 20 21 22 22 23 23 24 25 25 26 27 28 29 29 30 31 31 32 33 32 33 33 32
13 13 14 14 14 14 14 12 13 14 15 16 15 16 17 18 18 17 17 18 18 19 20 21 21 22 23 24 25 26 27 28 29 30 30 31 31 31 32 32 32 32 32 32
13 13 12 12 12 13 13 13 12 12 13 12 11 15 17 17 18 17 16 18 18 19 20 21 22 22 23 24 26 27 28 29 30 30 31 31 32 31 32 31 31 31 31 31
13 12 11 12 12 12 12 13 11 10 12 13 12 14 19 16 16 16 17 19 19 19 20 21 22 23 24 25 26 27 28 30 30 30 30 31 31 31 30 30 30 30 30 30
11 12 11 11 11 12 12 12 13 12 12 13 13 14 17 15 15 18 18 19 19 21 21 22 24 25 25 26 27 28 29 29 30 31 31 30 30 30 30 30 30 30 30 29
14 15 14 13 12 11 12 13 13 13 12 13 16 17 18 18 18 19 19 20 21 22 24 25 26 27 27 28 28 29 30 30 30 30 29 29 29 29 29 29 29 29 29 29
14 14 14 14 13 12 12 12 13 14 14 14 16 20 20 20 22 22 20 21 23 24 26 27 28 28 28 29 29 29 29 29 29 29 29 28 28 28 28 29 29 29 29 28
16 15 13 13 13 13 13 12 12 15 16 16 16 20 22 24 24 23 23 24 25 26 27 28 28 29 29 30 30 29 30 29 29 29 28 27 27 27 27 27 28 28 28 28
15 15 14 12 10 11 11 11 13 15 15 15 17 22 24 26 24 23 25 26 27 28 28 29 29 29 30 30 30 30 30 29 28 28 27 27 26 26 27 27 26 27 27 27
14 15 14 13 12 13 12 12 13 15 15 15 18 22 24 25 25 25 26 27 28 28 29 30 30 29 29 29 29 29 28 27 27 26 27 26 26 26 26 26 26 26 26 25
11 10 12 13 12 12 12 12 14 14 15 17 20 23 24 24 26 27 27 27 27 28 29 29 29 29 28 28 28 28 27 26 26 26 26 25 25 25 25 25 24 24 23 22
10 9 9 10 10 11 12 13 12 13 16 17 20 22 23 25 27 26 26 27 28 28 27 27 27 27 26 27 26 26 25 25 25 25 25 24 24 24 23 21 21 21 20 20
8 9 8 8 9 11 11 12 13 14 15 17 19 21 23 25 25 25 26 27 27 26 25 25 25 25 26 25 25 25 24 23 23 22 22 22 21 20 20 19 19 19 18 17
7 8 7 7 8 10 10 12 15 16 17 17 19 21 23 24 25 25 25 25 25 24 24 23 24 23 23 23 23 22 21 21 21 20 19 19 18 17 17 16 15 15 15 14
6 6 7 8 9 10 12 12 14 15 16 17 19 22 23 23 24 24 24 23 23 22 22 22 22 21 20 19 19 18 18 17 17 16 16 15 14 14 14 13 12 12 13 12
6 6 7 8 9 10 11 12 13 15 17 17 18 20 22 23 23 23 22 21 22 22 21 20 19 18 17 17 17 16 16 15 15 14 14 13 13 13 12 11 11 10 9 9
7 6 8 9 11 11 11 12 13 15 17 17 18 19 21 21 21 21 20 20 20 20 19 17 16 15 14 14 14 13 13 13 12 12 11 11 11 11 10 9 8 7 7 7
7 7 8 10 10 12 13 13 13 15 16 17 18 19 20 20 20 19 19 19 19 18 17 15 13 13 12 11 11 11 11 10 10 10 9 9 8 8 7 7 6 5 5 5
7 8 9 10 10 11 13 13 14 15 16 17 18 18 19 18 18 18 18 17 16 15 14 12 12 11 11 10 10 10 9 9 9 8 7 7 6 6 6 5 5 5 4 4
9 8 9 10 10 12 11 12 14 15 15 16 17 17 17 17 16 16 16 15 13 13 12 11 11 11 10 10 9 9 9 9 8 8 7 7 6 6 6 5 5 5 5 5
8 9 10 10 11 11 12 12 13 14 15 15 16 16 15 15 14 13 13 13 12 12 11 10 10 9 9 9 9 8 9 9 9 9 8 8 7 7 7 7 7 7 6 7
Wind_Direction
198 197 197 198 195 192 197 213 218 220 240 244 243 251 252 257 262 262 263 264 267 269 269 269 270 274 276 278 280 280 280 282 284 283 281 280 280 280 280 280 279 276 277 278
198 202 202 201 202 192 201 217 221 232 245 246 244 252 259 265 267 264 265 268 269 268 269 272 273 276 277 279 280 280 282 283 283 283 282 280 281 281 281 281 280 279 280 279
201 203 205 203 203 197 200 214 223 228 241 249 245 253 260 263 266 268 267 267 269 272 274 276 278 280 280 280 280 281 282 283 283 284 283 281 281 281 282 282 281 280 280 279
196 205 208 205 202 201 204 213 227 234 240 250 251 254 260 262 265 265 266 268 270 273 275 278 281 281 280 281 282 283 283 284 285 285 284 284 283 282 282 282 282 281 280 279
202 209 207 207 206 208 206 213 225 237 240 244 247 249 253 260 265 267 268 272 275 276 278 280 281 282 282 283 283 284 285 286 287 286 286 286 285 284 283 282 282 281 280 279
205 211 209 211 210 210 207 218 227 237 242 246 248 252 263 266 276 280 277 278 279 280 280 281 282 282 284 285 286 286 287 289 288 287 286 286 286 286 285 283 281 281 280 279
205 210 212 211 212 215 211 214 230 244 249 250 244 247 262 273 281 284 283 282 280 282 282 283 284 285 286 288 288 289 290 291 290 289 288 287 287 287 286 284 283 283 282 281
205 212 219 216 214 217 215 219 235 257 273 276 253 252 265 274 280 284 287 288 288 285 285 285 287 288 288 289 290 291 291 291 290 291 290 289 287 287 287 286 285 285 285 284
208 211 217 228 223 217 217 225 235 255 266 277 261 262 263 264 279 289 291 290 290 289 289 290 291 292 291 291 292 293 293 292 291 292 293 291 289 288 288 287 286 286 286 285
206 215 215 223 224 223 217 228 232 241 265 279 276 273 279 271 283 290 292 291 293 292 292 293 294 294 294 294 294 295 294 295 295 294 293 293 291 289 288 288 288 288 287 287
213 218 215 216 220 225 225 226 234 239 254 275 286 288 289 292 291 293 294 294 294 294 293 294 295 296 296 295 296 296 296 296 296 295 294 293 292 291 289 289 289 289 289 288
217 222 222 217 216 222 229 234 240 243 250 264 280 289 289 291 293 295 292 292 294 295 295 295 296 297 297 296 297 298 299 298 297 296 294 293 292 290 291 290 290 289 289 287
215 218 225 226 219 218 221 228 237 247 252 257 271 280 285 287 290 293 296 296 296 297 296 296 296 296 296 297 297 299 299 299 297 296 294 295 293 292 292 292 290 289 288 287
218 220 226 234 226 222 225 230 235 244 251 260 271 277 281 288 290 292 294 296 296 298 298 298 298 296 296 297 298 298 298 298 296 295 295 295 294 292 292 292 291 290 289 289
226 221 223 232 234 231 234 239 247 252 260 269 273 278 286 292 295 297 297 296 297 299 299 298 298 297 297 297 297 297 296 296 296 296 296 296 294 292 292 292 293 293 292 289
235 230 224 225 231 228 233 239 246 252 263 269 276 283 286 291 295 298 302 302 302 301 300 299 299 298 297 297 296 296 295 296 296 296 297 298 295 293 294 293 294 295 295 292
234 236 234 230 237 242 239 240 246 261 264 269 277 285 289 295 299 302 304 306 307 305 302 300 298 298 298 297 297 297 296 297 297 297 297 296 296 296 296 294 295 295 296 295
222 230 238 236 239 251 252 248 257 263 267 273 279 284 291 297 302 304 306 305 307 308 307 305 301 299 298 297 297 298 298 299 299 300 300 298 297 297 299 299 297 295 297 297
220 225 224 234 248 247 261 261 268 272 276 278 284 290 295 300 303 307 308 309 310 310 309 308 307 305 302 301 301 301 299 300 301 302 302 303 302 302 303 303 303 301 299 300
225 236 234 239 251 252 262 269 278 283 290 293 296 299 304 308 308 310 311 312 312 312 311 310 308 306 305 305 306 306 306 305 304 304 304 306 306 308 309 307 304 303 303 303
230 240 250 257 261 265 274 272 281 286 292 299 302 306 309 310 311 313 312 313 315 316 315 313 312 311 312 313 313 312 309 308 308 309 309 309 308 311 312 310 309 309 310 311
234 245 253 257 262 270 279 287 289 292 298 303 307 310 312 312 312 314 313 314 317 320 321 321 321 321 321 321 321 319 319 317 314 314 315 315 313 312 312 314 319 320 321 322
242 249 265 272 275 280 287 291 297 299 303 306 308 310 314 315 315 315 316 318 319 323 326 329 332 335 333 330 330 333 333 333 330 324 321 324 327 324 327 329 333 334 336 338
259 259 265 274 280 285 290 295 300 304 307 309 312 316 317 319 319 320 321 323 327 331 336 341 343 343 342 344 344 345 345 343 340 338 339 342 345 350 359 3 6 7 5 7
260 264 267 273 285 291 293 301 307 310 314 315 315 317 320 324 325 325 326 330 333 337 340 344 346 348 352 354 355 353 354 354 1 4 10 15 20 25 30 33 36 37 39 40
259 264 267 273 283 293 303 307 311 316 322 323 322 322 325 328 331 333 337 342 346 351 353 353 354 358 2 5 8 11 15 20 23 29 35 38 40 46 48 48 50 54 56 57
Height
5818 5822 5824 5828 5831 5833 5836 5839 5841 5842 5842 5843 5844 5843 5842 5842 5843 5842 5845 5845 5846 5847 5847 5847 5846 5847 5847 5846 5846 5846 5845 5844 5844 5843 5842 5841 5841 5839 5839 5838 5837 5837 5837 5836
5818 5821 5824 5827 5830 5832 5836 5838 5840 5841 5841 5842 5842 5841 5841 5841 5841 5842 5842 5842 5842 5843 5843 5842 5841 5843 5842 5842 5841 5840 5839 5839 5838 5837 5836 5835 5834 5833 5833 5832 5831 5831 5830 5829
5817 5821 5823 5825 5828 5831 5835 5837 5838 5839 5839 5840 5840 5839 5839 5838 5838 5839 5839 5839 5839 5839 5839 5838 5837 5838 5838 5837 5836 5835 5835 5834 5833 5832 5830 5829 5828 5827 5826 5826 5825 5824 5823 5822
5815 5818 5821 5824 5827 5830 5833 5835 5836 5836 5837 5837 5838 5837 5836 5835 5835 5835 5836 5836 5836 5836 5835 5835 5834 5834 5833 5833 5832 5830 5829 5828 5827 5826 5824 5823 5822 5821 5820 5818 5817 5816 5815 5815
5815 5817 5819 5822 5825 5827 5830 5832 5833 5834 5834 5835 5835 5834 5832 5831 5831 5831 5832 5831 5832 5832 5831 5831 5830 5829 5829 5828 5826 5825 5824 5822 5821 5820 5818 5817 5815 5814 5812 5811 5810 5809 5808 5807
5813 5816 5818 5821 5823 5825 5827 5830 5831 5831 5831 5832 5832 5831 5829 5828 5828 5827 5827 5827 5828 5828 5827 5826 5825 5824 5824 5823 5821 5820 5818 5816 5815 5813 5811 5810 5808 5806 5805 5803 5802 5801 5800 5799
5811 5814 5816 5818 5820 5823 5825 5828 5829 5828 5827 5827 5828 5827 5826 5825 5825 5824 5823 5823 5824 5824 5823 5822 5821 5820 5819 5817 5816 5814 5812 5810 5808 5806 5804 5802 5801 5799 5797 5796 5794 5793 5792 5790
5809 5812 5814 5816 5819 5820 5823 5825 5826 5827 5826 5825 5824 5824 5823 5822 5822 5821 5821 5820 5820 5820 5819 5818 5816 5815 5814 5812 5810 5808 5806 5804 5802 5799 5797 5795 5793 5791 5789 5788 5786 5785 5784 5782
5807 5810 5813 5814 5817 5819 5821 5822 5824 5825 5824 5823 5822 5821 5820 5818 5819 5818 5818 5817 5816 5816 5814 5813 5812 5810 5808 5806 5804 5802 5799 5797 5795 5792 5790 5787 5785 5783 5782 5780 5779 5777 5776 5775
5806 5809 5811 5813 5815 5817 5819 5821 5821 5822 5822 5821 5819 5818 5815 5814 5816 5816 5815 5813 5812 5811 5810 5809 5807 5805 5803 5800 5798 5795 5793 5790 5787 5785 5782 5780 5778 5776 5774 5773 5771 5770 5768 5767
5804 5807 5809 5811 5813 5816 5817 5819 5819 5821 5820 5820 5818 5817 5812 5811 5812 5811 5810 5809 5808 5806 5805 5803 5801 5799 5796 5794 5791 5788 5785 5783 5780 5778 5775 5773 5771 5769 5767 5766 5764 5762 5761 5760
5802 5805 5806 5809 5811 5813 5815 5816 5818 5818 5818 5818 5816 5816 5810 5807 5808 5807 5806 5804 5802 5800 5799 5797 5795 5792 5790 5787 5784 5781 5778 5776 5773 5770 5768 5765 5763 5761 5760 5758 5756 5755 5753 5752
5800 5802 5804 5805 5809 5810 5811 5813 5815 5815 5815 5815 5814 5813 5808 5806 5804 5802 5801 5800 5798 5795 5793 5791 5788 5786 5783 5780 5777 5774 5771 5769 5766 5763 5761 5758 5756 5754 5752 5750 5749 5747 5746 5745
5797 5799 5802 5803 5804 5806 5808 5810 5811 5812 5811 5811 5810 5808 5805 5803 5800 5798 5797 5795 5792 5790 5787 5785 5782 5779 5776 5773 5770 5767 5764 5761 5759 5756 5754 5751 5749 5747 5745 5743 5742 5740 5739 5737
5793 5795 5797 5799 5802 5804 5806 5807 5808 5809 5808 5808 5807 5804 5802 5799 5796 5794 5792 5790 5787 5783 5781 5778 5775 5772 5768 5765 5763 5760 5757 5754 5752 5749 5747 5744 5742 5740 5738 5736 5735 5734 5732 5731
5791 5792 5794 5796 5798 5800 5802 5804 5805 5805 5805 5804 5802 5800 5798 5795 5793 5789 5786 5783 5780 5777 5774 5770 5767 5764 5761 5758 5755 5753 5750 5748 5745 5743 5740 5738 5736 5734 5732 5730 5729 5728 5726 5725
5789 5791 5792 5794 5796 5797 5799 5800 5801 5801 5801 5800 5798 5796 5792 5791 5788 5784 5781 5778 5774 5770 5767 5764 5760 5757 5754 5751 5749 5746 5744 5741 5739 5737 5734 5732 5730 5728 5726 5725 5724 5722 5720 5719
5788 5789 5790 5792 5794 5795 5798 5797 5797 5797 5797 5796 5794 5791 5789 5786 5782 5779 5776 5773 5769 5765 5761 5757 5754 5751 5748 5745 5743 5740 5738 5736 5733 5731 5729 5727 5725 5723 5721 5720 5718 5717 5716 5715
5787 5788 5789 5790 5791 5793 5793 5794 5794 5794 5792 5791 5789 5787 5784 5780 5777 5774 5771 5767 5763 5759 5755 5752 5748 5745 5742 5740 5737 5735 5733 5730 5728 5726 5724 5722 5721 5719 5717 5716 5714 5713 5712 5711
5786 5787 5788 5788 5789 5790 5791 5791 5791 5791 5788 5787 5784 5782 5778 5775 5772 5769 5765 5761 5758 5754 5751 5747 5744 5741 5738 5735 5733 5730 5728 5726 5724 5722 5720 5719 5717 5715 5714 5712 5711 5710 5709 5708
5786 5786 5787 5787 5787 5787 5788 5788 5789 5789 5787 5783 5781 5778 5775 5772 5768 5765 5761 5757 5754 5750 5746 5743 5740 5737 5734 5732 5729 5727 5725 5723 5721 5719 5717 5716 5714 5713 5711 5710 5709 5708 5707 5706
5785 5786 5786 5786 5786 5788 5785 5786 5786 5785 5783 5780 5778 5775 5772 5768 5764 5761 5757 5754 5750 5747 5743 5740 5737 5734 5731 5729 5727 5724 5722 5720 5718 5717 5715 5714 5712 5711 5710 5708 5707 5706 5705 5705
5783 5785 5785 5785 5787 5785 5784 5784 5783 5781 5780 5777 5775 5771 5768 5765 5761 5757 5754 5751 5748 5744 5741 5738 5735 5733 5730 5727 5725 5723 5721 5719 5717 5715 5714 5713 5711 5710 5709 5707 5706 5705 5705 5704
5783 5783 5784 5783 5782 5782 5782 5781 5780 5779 5777 5774 5771 5768 5765 5761 5758 5755 5751 5748 5745 5742 5739 5737 5734 5732 5730 5727 5725 5723 5721 5719 5717 5715 5714 5712 5711 5710 5708 5707 5707 5706 5705 5704
5781 5781 5782 5782 5781 5781 5780 5779 5778 5776 5774 5771 5768 5765 5762 5759 5756 5752 5749 5747 5744 5741 5738 5736 5734 5731 5729 5727 5725 5723 5722 5720 5718 5716 5714 5713 5712 5711 5709 5708 5708 5707 5706 5706
5780 5780 5780 5780 5779 5779 5778 5777 5775 5774 5771 5769 5766 5763 5760 5757 5754 5751 5748 5746 5743 5740 5738 5736 5734 5732 5730 5728 5726 5724 5723 5721 5719 5717 5716 5714 5713 5712 5711 5710 5710 5709 5708 5707